Powrót do katalogu

STARLINK-32765

AktywnyŁącznośćVLEO
NORAD 62747·PAYLOAD·🇺🇸 United States

Wystrzelony Jan 21, 2025 z Cape Canaveral Space Force Station

Loading…

Następne Przeloty (najbliższe 24 godziny)

TLE

ŚwieżeSource: CelesTrak SupGP

Epoka: Sep 14, 2026, 21:09 UTC

1 62747C 25014N   26257.88173611 -.00032211  00000+0 -11666-2 0  2574
2 62747  42.9994 166.0090 0001167 264.5191 357.7004 15.27598321    10

Śledź STARLINK-32765 w czasie rzeczywistym z AllMySat

Download on the App Store